Regional Weather Roundup
Issued by NWS Burlington, VT

Home | Current Version | Previous Version | Text Only | Print | Product List | Glossary On
Versions: 1 2 3 4 5 6 7 8 9 10 11 12 13 14 15 16 17 18 19 20 21 22 23 24 25 26 27 28 29 30 31 32 33 34 35 36 37 38 39 40 41 42 43 44 45 46 47 48 49 50
000
ASUS41 KBTV 031210
RWRBTV
VERMONT REGIONAL WEATHER ROUNDUP
NATIONAL WEATHER SERVICE BURLINGTON VT
800 AM EDT TUE AUG 03 2021

NOTE: "FAIR" INDICATES FEW OR NO CLOUDS BELOW 12,000 FEET WITH NO
SIGNIFICANT WEATHER AND/OR OBSTRUCTIONS TO VISIBILITY.

* THESE REPORTS ARE NOT UNDER NWS QUALITY CONTROL AND/OR DO NOT
  REPORT WEATHER SUCH AS PRECIPITATION AND FOG.

VTZ001>019-031300-
_____VERMONT_____


CITY           SKY/WX    TMP DP  RH WIND       PRES   REMARKS
BURLINGTON     SUNNY     64  52  64 S14       30.08S
6HR MIN TEMP:  53; 6HR MAX TEMP:  64;

MONTPELIER     LGT RAIN  54  52  93 CALM      30.14S
6HR MIN TEMP:  46; 6HR MAX TEMP:  53;

MORRISVILLE    FOG       53  52  96 CALM      30.10S VSB 1
6HR MIN TEMP:  47; 6HR MAX TEMP:  53;

ST. JOHNSBURY*   N/A     51  51 100 MISG      30.10S
6HR MIN TEMP:  48; 6HR MAX TEMP:  51;

LYNDONVILLE*   FOG       50  49  97 CALM      30.13R VSB<1/4
6HR MIN TEMP:  45; 6HR MAX TEMP:  50;

MIDDLEBURY*    FAIR      57  54  87 CALM      30.12R
6HR MIN TEMP:  49; 6HR MAX TEMP:  57;

RUTLAND*       SUNNY     56  52  86 SE5       30.14S
6HR MIN TEMP:  49; 6HR MAX TEMP:  56;

SPRINGFIELD    FOG       52  52 100 CALM      30.14S VSB 3/4
6HR MIN TEMP:  50; 6HR MAX TEMP:  52;

HIGHGATE*      FAIR      64  54  69 S8        30.06S
6HR MIN TEMP:  59; 6HR MAX TEMP:  64;

NEWPORT*       FAIR      59  56  89 SW6       30.09S
6HR MIN TEMP:  49; 6HR MAX TEMP:  59;

BENNINGTON     SUNNY     58  54  86 CALM      30.15R
6HR MIN TEMP:  47; 6HR MAX TEMP:  58;

LAKE EDEN*       N/A     55 N/A N/A E1          N/A

_____LAKE CHAMPLAIN_____


CITY           SKY/WX    TMP DP  RH WIND       PRES   REMARKS
COLCHESTER RF*   N/A     63  55  77 S20         N/A

$$

NYZ007-026>031-035-052-083-087-031300-
_____NORTHERN NEW YORK_____


CITY           SKY/WX    TMP DP  RH WIND       PRES   REMARKS
PLATTSBURGH    SUNNY     64  55  72 S3        30.06S
6HR MIN TEMP:  51; 6HR MAX TEMP:  64;

SARANAC LAKE   SUNNY     56  53  90 SW7       30.11R
6HR MIN TEMP:  40; 6HR MAX TEMP:  56;

MASSENA        SUNNY     63  55  75 SW10      30.06S
6HR MIN TEMP:  56; 6HR MAX TEMP:  63;

OGDENSBURG*    FAIR      63  59  88 S8        30.05R
POTSDAM*       SUNNY     63  57  82 SW9       30.07S
WATERTOWN      SUNNY     62  52  69 SW6       30.09S
6HR MIN TEMP:  56; 6HR MAX TEMP:  62;

FT DRUM        SUNNY     60  53  76 S8        30.09R
6HR MIN TEMP:  55; 6HR MAX TEMP:  60;

ALBANY         MOSUNNY   56  54  93 S6        30.15R
6HR MIN TEMP:  48; 6HR MAX TEMP:  56;

GLENS FALLS    SUNNY     57  55  93 CALM      30.13S
6HR MIN TEMP:  47; 6HR MAX TEMP:  57;


$$
NHZ002-005-011-031300-
_____NEW HAMPSHIRE_____


CITY           SKY/WX    TMP DP  RH WIND       PRES   REMARKS
LEBANON        FOG       54  52  93 CALM      30.13R VSB 1
KEENE          CLOUDY    54  54 100 CALM      30.15S FOG
6HR MIN TEMP:  52; 6HR MAX TEMP:  54;

MT WASHINGTON  PTSUNNY   41  40  97 W30         N/A  WCI  30
                   6HR MAX TEMP:  41;

PLYMOUTH       FOG       50  49  97 CALM      30.13S VSB 3/4
6HR MIN TEMP:  47; 6HR MAX TEMP:  50;

WHITEFIELD     SUNNY     53  50  89 CALM      30.11S
6HR MIN TEMP:  41; 6HR MAX TEMP:  53;


$$

_____REGIONAL QUEBEC LOCATIONS_____


CITY           SKY/WX    TMP DP  RH WIND       PRES   REMARKS
MONTREAL       MOSUNNY   64  57  77 SW17      30.01R
QUEBEC CITY    PTSUNNY   59  55  88 W9        29.95R
SHERBROOKE     MOSUNNY   61  54  77 SW7       30.04R

_____REGIONAL ONTARIO LOCATIONS_____


CITY           SKY/WX    TMP DP  RH WIND       PRES   REMARKS
OTTAWA         MOSUNNY   61  54  77 SW7       30.03R

______KEY______
VSB  - VISIBILITY IN MILES
WCI  - WIND CHILL INDEX
HX   - HEAT INDEX
$$
NNNN



USA.gov is the U.S. government's official web portal to all federal, state and local government web resources and services.